Flag for Spain Weather past 2 weeks in Bilbao, Spain

Now
57 °F

Sunny.


Feels Like: 57 °F
Forecast: 43 / 60 °F
Wind: No wind

Location: Bilbao / Sondica

Current Time: Dec 22, 2014 at 1:25:39 PM

Latest Report: Dec 22, 2014 at 1:00 PM


Visibility: 10 mi

Pressure: 30.42 "Hg

Humidity: 63%

Dew point: 45 °F

Location of BilbaoLocation

Historic Weather in Bilbao — Graph

°F

Bilbao temperature yesterday

Maximum temperature yesterday: 59 °F (at 3:00 PM)
Minimum temperature yesterday: 41 °F (at 11:30 PM)
Average temperature yesterday: 51 °F

Past Weeks' High & Low Weather Summary

 TemperatureHumidityPressure
High61 °F (Dec 12, 1:30 PM)100% (Dec 7, 12:00 PM)30.63 "Hg (Dec 7, 12:00 PM)
Low39 °F (Dec 22, 5:30 AM)45% (Dec 12, 3:30 PM)29.77 "Hg (Dec 13, 5:00 AM)
Average53 °F82%30.31 "Hg
* Reported Dec 7 12:00 Noon — Dec 22 12:30 PM, Bilbao, Weather by CustomWeather, © 2014

Note: Actual official high and low records may vary slightly from our data, if they occured in-between our weather recording intervals... More about our weather records

Advertising

Bilbao weather history for previous 24 hours

 ConditionsComfort  
Time TempWeatherWind HumidityBarometerVisibility
12:30 PM
Dec 22
54 °FSunny.No wind72%30.42 "Hg10 mi
12:00 PM52 °FSunny.No wind72%30.45 "Hg10 mi
11:30 AM48 °FSunny.No wind82%30.45 "Hg10 mi
11:00 AM46 °FSunny.2 mph87%30.45 "Hg10 mi
10:30 AM45 °FFog.No wind93%30.45 "HgN/A
10:00 AM41 °FFog.5 mph100%30.45 "HgN/A
9:30 AM39 °FScattered clouds.1 mph100%30.48 "HgN/A
9:00 AM39 °FScattered clouds.5 mph100%30.48 "Hg4 mi
8:30 AM39 °FClear.6 mph100%30.48 "Hg5 mi
8:00 AM39 °FClear.No wind100%30.45 "Hg5 mi
7:30 AM39 °FFog.2 mph100%30.45 "Hg4 mi
7:00 AM39 °FFog.2 mph100%30.45 "Hg4 mi
6:30 AM39 °FPassing clouds.3 mph100%30.45 "Hg4 mi
6:00 AM39 °FPassing clouds.6 mph100%30.45 "Hg3 mi
5:59 AM39 °FPassing clouds.6 mph100%30.45 "Hg3 mi
5:30 AM39 °FPassing clouds.5 mph100%30.45 "Hg1 mi
12:00 AM41 °FFog.6 mph100%30.54 "Hg0 mi
11:54 PM
Dec 21
41 °FFog.6 mph93%30.54 "Hg0 mi
11:30 PM41 °FClear.3 mph100%30.54 "Hg4 mi
11:00 PM43 °FClear.2 mph93%30.54 "Hg10 mi
10:30 PM43 °FClear.1 mph93%30.54 "Hg10 mi
10:00 PM43 °FClear.2 mph93%30.54 "Hg10 mi
9:30 PM45 °FPassing clouds.2 mph93%30.54 "HgN/A
9:00 PM43 °FPassing clouds.2 mph93%30.54 "HgN/A
8:30 PM45 °FPassing clouds.2 mph93%30.54 "HgN/A
8:00 PM45 °FPassing clouds.2 mph93%30.54 "HgN/A
7:30 PM45 °FPassing clouds.3 mph93%30.54 "HgN/A
7:00 PM46 °FPassing clouds.2 mph87%30.54 "HgN/A
6:30 PM50 °FPassing clouds.2 mph82%30.54 "HgN/A
6:00 PM52 °FPassing clouds.2 mph77%30.54 "HgN/A
5:30 PM52 °FPassing clouds.2 mph77%30.54 "HgN/A
5:00 PM54 °FScattered clouds.No wind72%30.54 "HgN/A
4:30 PM55 °FScattered clouds.3 mph72%30.54 "HgN/A
4:00 PM55 °FScattered clouds.7 mph72%30.54 "HgN/A
3:30 PM55 °FPartly sunny.8 mph72%30.54 "HgN/A
3:00 PM59 °FPassing clouds.6 mph63%30.54 "HgN/A
2:30 PM57 °FPassing clouds.No wind63%30.54 "HgN/A
2:00 PM57 °FPassing clouds.No wind67%30.57 "HgN/A
1:30 PM57 °FPassing clouds.2 mph67%30.57 "HgN/A
1:00 PM55 °FPassing clouds.3 mph72%30.60 "HgN/A
Weather by CustomWeather, © 2014

See weather overviewHow to use our weather pages